Regional Weather Roundup
Issued by NWS Upton, NY

Current Version | Previous Version | Text Only | Print | Product List | Glossary On
Versions: 1 2 3 4 5 6 7 8 9 10 11 12 13 14 15 16 17 18 19 20 21 22 23 24 25 26 27 28 29 30 31 32 33 34 35 36 37 38 39 40 41 42 43 44 45 46 47 48 49 50
000 ASUS41 KOKX 290505 RWROKX REGIONAL WEATHER ROUNDUP NATIONAL WEATHER SERVICE NEW YORK NY 100 AM EDT THU SEP 29 2016 NOTE: "FAIR" INDICATES FEW OR NO CLOUDS BELOW 12,000 FEET WITH NO SIGNIFICANT WEATHER AND/OR OBSTRUCTIONS TO VISIBILITY. NYZ071-072-176-178-NJZ106-104-290600- NEW YORK CITY METRO AREA CITY SKY/WX TMP DP RH WIND PRES REMARKS Central Park CLOUDY 57 53 86 E12G21 30.28S LaGuardia APRT LGT RAIN 60 57 89 NE20G26 30.25S Kennedy INTL CLOUDY 59 56 89 NE15 30.25S Newark/Liberty CLOUDY 58 54 86 NE16 30.24F Bronx Bot Gard N/A 55 52 88 NE9 30.28S Wall St Helipt CLOUDY N/A N/A N/A NE21G28 30.23S Teterboro DRIZZLE 58 51 78 NE14 30.25F $$ NYZ177-179-078>081-290600- LONG ISLAND NEW YORK CITY SKY/WX TMP DP RH WIND PRES REMARKS Farmingdale CLOUDY 59 56 89 NE9G21 30.25F MacArthur/ISP CLOUDY 59 58 96 NE10 30.24F Shirley CLOUDY 59 56 89 VRB7 30.26F Riverhead NOT AVBL Westhampton CLOUDY 60 57 89 NE21G31 30.26F Southampton N/A 59 57 94 NE9 30.22F Bridgehampton N/A 59 57 94 SE3 30.11F East Hampton CLOUDY 59 57 93 NE13G22 30.26S Montauk N/A 61 59 93 NE12G22 30.28R $$ NYZ052-065-067-290600- HUDSON VALLEY CITY SKY/WX TMP DP RH WIND PRES REMARKS White Plains MOCLDY 55 53 93 NE10 30.26F Newburgh CLOUDY 55 52 88 E8 30.30F Montgomery CLOUDY 55 51 86 NE7 30.29S Poughkeepsie CLOUDY 56 50 80 N6 30.29S Albany CLOUDY 51 46 83 CALM 30.35S $$ NJZ001-105-106-008-010-013-015-019>022-104-290600- NEW JERSEY CITY SKY/WX TMP DP RH WIND PRES REMARKS Newark/Liberty CLOUDY 58 54 86 NE16 30.24F Teterboro DRIZZLE 58 51 78 NE14 30.25F Caldwell CLOUDY 56 53 90 NE12G20 30.26S Morristown CLOUDY 55 54 94 NE10G16 30.25F Somerville CLOUDY 58 52 80 VRB7 30.21F Linden NOT AVBL Sussex CLOUDY 54 52 93 NE13 30.27F FOG Abdover N/A 55 53 93 VRB6 30.25F Trenton LGT RAIN 59 55 87 NE14G20 30.20S Millville LGT RAIN 65 65 100 E17G23 30.15R Atlantic City CLOUDY 66 63 90 E13G26 30.16R Wrightstown LGT RAIN 60 59 96 NE15 30.17R FOG Toms River LGT RAIN 63 62 97 E12G22 30.20R FOG Belmar LGT RAIN 61 59 93 NE15G24 30.21F $$ PAZ047>061-062-071-290600- EASTERN PENNSYLVANIA CITY SKY/WX TMP DP RH WIND PRES REMARKS Philadelphia LGT RAIN 61 58 90 E14G20 30.20R Allentown CLOUDY 60 52 74 E16G22 30.22R Scranton CLOUDY 57 51 80 E9G18 30.23R $$ CTZ002-004>006-009-010-012-RIZ004-006-007-MAZ004-011-015-290600- SOUTHERN NEW ENGLAND IN CT CITY SKY/WX TMP DP RH WIND PRES REMARKS Bradley INTL CLOUDY 57 49 74 NE13 30.34R Hartford CLOUDY 58 51 78 N13 30.32S Danbury CLOUDY 54 51 90 E10 30.30F Wtrbury/Oxford N/A 55 46 71 NE13G24 30.29F Bridgeport CLOUDY 59 53 80 NE13 30.27F Meriden CLOUDY 59 50 72 N13G20 30.30F New Haven CLOUDY 58 53 84 N13 30.28F Chester CLOUDY 57 54 88 NE10 30.28F Groton CLOUDY 61 55 81 NE17G24 30.28R Wilimantic CLOUDY 58 52 80 NE13G22 30.33R IN RI CITY SKY/WX TMP DP RH WIND PRES REMARKS Providence CLOUDY 59 53 80 NE12G21 30.32R Block Island CLOUDY 61 58 90 NE17G28 30.27R Westerly CLOUDY 60 54 80 N10G21 30.29R IN MA CITY SKY/WX TMP DP RH WIND PRES REMARKS Boston CLOUDY 58 52 80 NE21 30.35S Worcester CLOUDY 52 47 83 NE12 30.35S Westfield CLOUDY 56 49 77 N9 30.36R Provincetown CLOUDY 59 56 89 NE18G26 30.31F Nantucket CLOUDY 60 57 89 NE21G32 30.25S $$ ANZ330-335-338-340-345-350-353-355-290600- COASTAL MARINE OBSERVATIONS STATION/POSITION TIME SKY/WX TEMP WIND PRES VSBY WAVE AIR SEA DIR/SP/G HT/PER (UTC) (F) (DEG/KT/KT) (MB) (MI) (FT/S) NY HARB ENTRANCE 0350 62 70 50/ 25/ 29 1022.8 8/ 6 20S FIRE ISLAND 0350 64 69 60/ 25/ 31 1022.1 10/ 8 GREAT SOUTH BAY 0415 61 67 50/ 16/ 21 N/A 23 SSW MONTAUK P 0350 63 67 50/ 25/ 29 1023.5 8/ 7 15 E BARNEGAT LI 0400 70 N/A 10/ 8 HUDSON CANYON 0350 67 68 1021.5 9/ 8 KINGS POINT 0424 58 72 1024.1 EXECUTION ROCKS 0445 60 40/ 19/ 25 N/A CENTRAL LI SOUND 0430 61 71 50/ 17/ 21 N/A 3/ 4 EASTERN LI SOUND NOT AVBL ROBBINS REEF 0424 60 50/ 15/ 19 1023.9 $$ >>>>>>>>>>>>>>>>>>>>>>>>>>>> KEY <<<<<<<<<<<<<<<<<<<<<<<<<<< > < > SKY/WX - Sky Condition/Present Weather < > TMP - Temperature in Fahrenheit < > DP - Dew Point in Fahrenheit < > RH - Relative Humidity in Percent < > WIND - Direction (from) and Speed in MPH < > PRES - Mean Sea Level Pressure (inches of Hg) < > WCI - Wind Chill Index < > VSB - VISIBILITY IN MILES < > HX - HEAT INDEX < > TC - TEMPERATURE IN CELSIUS < > VRB - VARIABLE WIND DIRECTION < > < >>>>>>>>>>>>>>>>>>>>>>>>>>>> KEY <<<<<<<<<<<<<<<<<<<<<<<<<<<

USA.gov is the U.S. government's official web portal to all federal, state and local government web resources and services.